Bloomington, IN

12:50 PM EDT on June 26, 2017 (GMT -0400)
Monroe County

Weather History for KBMG - February, 2007

Change the Weather History Date:

Saturday, February 3, 2007

  Actual Average Record
Temperature  
Mean Temperature 14 °F 31 °F  
Max Temperature 23 °F 40 °F 62 °F (2016)
Min Temperature 6 °F 21 °F 6 °F (2007)
Degree Days  
Heating Degree Days 50 34  
Month to date heating degree days 104  
Since 1 July heating degree days 3279  
Cooling Degree Days 0 0  
Month to date cooling degree days 0  
Year to date cooling degree days 0  
Moisture  
Dew Point 0 °F    
Average Humidity 51    
Maximum Humidity 73    
Minimum Humidity 29    
Precipitation  
Precipitation 0.00 in 0.10 in 0.37 in (2003)
Month to date precipitation 0.30  
Year to date precipitation 3.61  
Sea Level Pressure  
Sea Level Pressure 30.10 in    
Wind  
Wind Speed 9 mph (West)    
Max Wind Speed 20 mph    
Max Gust Speed 30 mph    
Visibility 9 miles    
Events Snow    
T = Trace of Precipitation, MM = Missing Value Source: NWS Daily Summary

Daily Weather History Graph

Daily Weather History Graph

Search for Another Location

Airport or City:

Trip Planner

Search our weather history database for the weather conditions in past years. The results will help you decide how hot, cold, wet, or windy it might be!

Date:

Astronomy

Feb. 03, 2007 Rise Set
Actual Time 7:51 AM EST 6:09 PM EST
Civil Twilight 7:23 AM EST 6:37 PM EST
Nautical Twilight 6:51 AM EST 7:09 PM EST
Astronomical Twilight 6:20 AM EST 7:40 PM EST
Moon 7:46 PM EST (2/3) 8:44 AM EST (2/3)
Length of Visible Light 11h 14m
Length of Day
10h 17m
Full, 98% of the Moon is Illuminated
Feb 3
Full
Feb 10
Last Quarter
Feb 17
New
Feb 24
First Quarter
Mar 3
Full

Hourly Weather History & Observations

Time (EST) Temp. Windchill Dew Point Humidity Pressure Visibility Wind Dir Wind Speed Gust Speed Precip Events Conditions
12:53 AM 6.1 °F - -2.0 °F 69% 30.03 in 10.0 mi Calm Calm - N/A   Clear
1:53 AM 8.1 °F - -2.0 °F 64% 30.02 in 10.0 mi Calm Calm - N/A   Clear
2:53 AM 10.0 °F -0.9 °F -2.0 °F 58% 30.03 in 10.0 mi SW 6.9 mph - N/A   Clear
3:53 AM 9.0 °F -2.2 °F -2.9 °F 59% 30.02 in 10.0 mi SSW 6.9 mph - N/A   Clear
4:53 AM 9.0 °F -3.2 °F -2.9 °F 59% 30.00 in 10.0 mi South 8.1 mph - N/A   Clear
5:53 AM 10.9 °F -1.8 °F -2.0 °F 56% 29.99 in 10.0 mi South 9.2 mph - N/A   Clear
6:53 AM 10.9 °F -2.6 °F -2.0 °F 56% 29.99 in 10.0 mi SSW 10.4 mph - N/A   Clear
7:53 AM 12.9 °F -0.2 °F -0.0 °F 56% 29.99 in 10.0 mi SW 10.4 mph - N/A   Clear
8:53 AM 17.1 °F 1.5 °F 3.0 °F 54% 30.01 in 10.0 mi SW 17.3 mph 23.0 mph N/A   Scattered Clouds
9:53 AM 19.0 °F 3.6 °F 5.0 °F 54% 30.03 in 10.0 mi WSW 18.4 mph 25.3 mph N/A   Scattered Clouds
10:53 AM 23.0 °F 8.7 °F 7.0 °F 50% 30.04 in 10.0 mi WSW 18.4 mph 25.3 mph N/A   Mostly Cloudy
11:53 AM 23.0 °F 8.3 °F 6.1 °F 48% 30.07 in 10.0 mi West 19.6 mph 29.9 mph N/A   Overcast
12:10 PM 19.4 °F 4.5 °F 8.6 °F 63% 30.05 in 1.5 mi WNW 17.3 mph 28.8 mph 0.00 in Snow Light Snow
12:17 PM 17.6 °F 4.3 °F 10.4 °F 73% 30.06 in 0.8 mi WNW 12.7 mph 25.3 mph 0.00 in Snow Light Snow
12:27 PM 17.6 °F 3.7 °F 10.4 °F 73% 30.06 in 2.0 mi WNW 13.8 mph 21.9 mph 0.00 in Snow Light Snow
12:36 PM 19.4 °F 6.6 °F 8.6 °F 63% 30.07 in 6.0 mi West 12.7 mph 25.3 mph 0.00 in   Haze
12:46 PM 19.4 °F 4.5 °F 6.8 °F 58% 30.07 in 8.0 mi West 17.3 mph 27.6 mph 0.00 in   Overcast
12:53 PM 19.9 °F 5.2 °F 5.0 °F 52% 30.12 in 10.0 mi West 17.3 mph 25.3 mph 0.00 in   Mostly Cloudy
1:53 PM 21.0 °F 7.6 °F -0.0 °F 40% 30.12 in 10.0 mi West 15.0 mph 27.6 mph N/A   Partly Cloudy
2:53 PM 21.9 °F 8.7 °F -4.0 °F 32% 30.14 in 10.0 mi West 15.0 mph 27.6 mph N/A   Clear
3:53 PM 19.9 °F 4.3 °F -8.0 °F 29% 30.15 in 10.0 mi West 19.6 mph - N/A   Clear
4:53 PM 19.0 °F 5.0 °F -6.0 °F 33% 30.17 in 10.0 mi West 15.0 mph 20.7 mph N/A   Clear
5:53 PM 18.0 °F 8.7 °F -6.0 °F 35% 30.18 in 10.0 mi West 6.9 mph - N/A   Clear
6:53 PM 16.0 °F 6.3 °F -7.1 °F 36% 30.21 in 10.0 mi West 6.9 mph - N/A   Clear
7:53 PM 15.1 °F 6.4 °F -7.1 °F 37% 30.23 in 10.0 mi West 5.8 mph - N/A   Clear
8:53 PM 12.0 °F 4.1 °F -6.0 °F 44% 30.25 in 10.0 mi West 4.6 mph - N/A   Clear
9:53 PM 12.9 °F 3.8 °F -6.0 °F 43% 30.26 in 10.0 mi WNW 5.8 mph - N/A   Clear
10:53 PM 12.0 °F 1.5 °F -6.0 °F 44% 30.26 in 10.0 mi WNW 6.9 mph - N/A   Clear
11:53 PM 10.0 °F -1.9 °F -6.0 °F 48% 30.28 in 10.0 mi West 8.1 mph - N/A   Clear